SP9EPI-13 Weather Reports


time (UTC)temp
F
wind
direction
speed
knots
gust
knots
rain 1hr
in
rain 24hr
in
rain mn
in
humidity
%
barometer
mb
20260905222001 59 258 3.5 0.0 0.00 0.00 0.00 99 1017.9
20260905220000 61 269 25.2 0.0 0.00 0.00 0.01 95 1017.6
20260905214001 63 305 19.1 0.0 0.00 0.00 0.01 89 1017.6
20260905212000 63 213 1.7 0.0 0.00 0.00 0.01 90 1016.9
20260905210001 63 220 3.5 0.0 0.00 0.00 0.01 89 1016.5
20260905204000 63 215 9.6 0.0 0.00 0.00 0.01 88 1016.5
20260905202001 63 198 6.1 0.0 0.00 0.00 0.01 89 1016.5
20260905200001 63 180 6.1 0.0 0.00 0.00 0.01 88 1016.2
20260905194001 63 244 3.5 0.0 0.00 0.00 0.01 90 1015.9
20260905192000 63 164 3.5 0.0 0.00 0.00 0.01 91 1015.9
20260905190000 64 179 1.7 0.0 0.00 0.00 0.01 86 1015.9
20260905184000 64 196 3.5 0.0 0.00 0.00 0.01 85 1015.9
20260905182000 66 239 6.1 0.0 0.00 0.00 0.01 84 1015.9
20260905180001 66 228 0.0 0.0 0.00 0.00 0.01 83 1015.2
20260905174000 66 90 7.8 0.0 0.00 0.00 0.01 84 1014.9
20260905172001 66 271 6.1 0.0 0.00 0.00 0.01 82 1014.9
20260905170001 68 98 0.0 0.0 0.00 0.00 0.01 81 1014.5
20260905164000 70 195 7.8 0.0 0.00 0.00 0.01 77 1014.5
20260905162001 70 315 6.1 0.0 0.00 0.00 0.01 76 1014.5
20260905160000 72 289 13.9 0.0 0.00 0.00 0.01 74 1014.2
20260905154000 72 237 19.1 0.0 0.00 0.00 0.01 72 1014.2
20260905152001 75 241 7.8 0.0 0.00 0.00 0.01 71 1014.2
20260905150000 72 25 9.6 0.0 0.00 0.00 0.01 75 1014.2
20260905144000 72 35 21.7 0.0 0.00 0.00 0.01 75 1014.2
20260905142000 72 252 11.3 0.0 0.00 0.00 0.01 74 1014.2
20260905140000 73 246 13.9 0.0 0.00 0.00 0.01 73 1014.2
20260905134000 75 244 21.7 0.0 0.00 0.00 0.01 71 1014.2
20260905132001 73 45 11.3 0.0 0.00 0.00 0.01 79 1014.2
20260905130000 70 290 13.9 0.0 0.00 0.00 0.01 82 1014.2
20260905124000 73 250 11.3 0.0 0.00 0.00 0.01 78 1014.2
20260905122000 75 214 25.2 0.0 0.00 0.00 0.01 78 1014.2
20260905120000 75 235 29.5 0.0 0.00 0.00 0.01 76 1014.2
20260905114000 75 213 13.9 0.0 0.00 0.00 0.01 78 1014.2
20260905112000 73 288 13.9 0.0 0.00 0.00 0.01 81 1014.2
20260905110000 70 231 26.9 0.0 0.00 0.00 0.01 88 1014.2
20260905104000 72 202 37.4 0.0 0.00 0.00 0.01 84 1014.2
20260905102000 68 225 26.9 0.0 0.00 0.00 0.01 93 1014.2
20260905100000 66 196 13.9 0.0 0.00 0.00 0.01 99 1014.2
20260905094000 70 237 29.5 0.0 0.00 0.00 0.01 95 1014.2
20260905092001 66 243 21.7 0.0 0.00 0.00 0.01 99 1014.5
20260905090000 64 227 19.1 0.0 0.00 0.00 0.01 99 1014.5
20260905084000 63 204 11.3 0.0 0.00 0.00 0.01 99 1014.5
20260905082000 63 246 23.5 0.0 0.00 0.00 0.01 99 1014.5
20260905080000 63 278 13.9 0.0 0.00 0.00 0.01 99 1014.2
20260905074000 63 239 7.8 0.0 0.00 0.00 0.01 99 1014.2
20260905072000 63 289 3.5 0.0 0.00 0.00 0.01 99 1014.2
20260905070001 61 309 11.3 0.0 0.00 0.00 0.01 99 1014.2
20260905064001 61 254 17.4 0.0 0.00 0.00 0.01 99 1013.5
20260905062000 63 215 23.5 0.0 0.00 0.00 0.00 99 1013.8
20260905060000 63 235 15.6 0.0 0.00 0.00 0.00 99 1013.2
20260905054000 63 181 13.9 0.0 0.00 0.00 0.00 99 1012.5
20260905052000 63 235 21.7 0.0 0.00 0.00 0.00 99 1012.5
20260905050000 63 273 11.3 0.0 0.00 0.00 0.00 99 1012.5
20260905044000 63 240 15.6 0.0 0.00 0.00 0.00 99 1011.8
20260905042000 64 234 13.9 0.0 0.00 0.00 0.00 99 1011.5
20260905040000 64 304 15.6 0.0 0.00 0.00 0.00 99 1011.5
20260905034000 64 211 13.9 0.0 0.00 0.00 0.00 99 1011.5
20260905032000 63 254 15.6 0.0 0.00 0.00 0.00 99 1011.5
20260905030000 63 225 19.1 0.0 0.00 0.00 0.00 99 1011.5
20260905024001 63 258 13.9 0.0 0.00 0.00 0.00 99 1011.5
20260905022001 63 238 21.7 0.0 0.00 0.00 0.00 99 1011.5
20260905020000 63 227 13.9 0.0 0.00 0.00 0.00 99 1011.5
20260905014000 63 240 7.8 0.0 0.00 0.00 0.00 99 1011.5
20260905012000 64 199 7.8 0.0 0.00 0.00 0.00 99 1011.5
20260905010001 66 274 11.3 0.0 0.00 0.00 0.00 99 1010.8
20260905004001 70 175 6.1 0.0 0.00 0.00 0.00 92 1009.8
20260905002000 70 277 6.1 0.0 0.00 0.00 0.00 95 1009.1
20260905000001 72 232 1.7 0.0 0.00 0.00 0.00 99 1008.8
20260904234000 72 236 6.1 0.0 0.00 0.00 0.00 99 1008.4
20260904232001 73 43 6.1 0.0 0.00 0.00 0.00 90 1007.7
20260904230000 77 265 17.4 0.0 0.00 0.00 0.00 78 1006.4
20260904224001 79 224 25.2 0.0 0.00 0.00 0.00 78 1006.4